Regional Weather Roundup
Issued by NWS

Home | Current Version | Previous Version | Graphics & Text | Print | Product List | Glossary Off
Versions: 1 2 3 4 5 6 7 8 9 10 11 12 13 14 15 16 17 18 19 20 21 22 23 24 25 26 27 28 29 30 31 32 33 34 35 36 37 38 39 40 41 42 43 44 45 46 47 48 49 50

000
ASUS43 KMKX 201711
RWRWI

WISCONSIN REGIONAL WEATHER ROUNDUP
NATIONAL WEATHER SERVICE MILWAUKEE/SULLIVAN WI
1200 PM CDT SAT SEP 20 2014

NOTE: "FAIR" INDICATES FEW OR NO CLOUDS BELOW 12,000 FEET WITH NO
SIGNIFICANT WEATHER AND/OR OBSTRUCTIONS TO VISIBILITY.

WIZ001-002-006>008-014>016-023>028-201800-
NORTHWEST WISCONSIN

CITY           SKY/WX    TMP DP  RH WIND       PRES   REMARKS
SUPERIOR ARPT  CLOUDY    62  54  73 NW8       29.75S
ASHLAND        PTSUNNY   68  57  68 W12G20    29.72R
HAYWARD        PTSUNNY   68  56  65 VRB6G16   29.74S
SIREN          PTSUNNY   67  56  66 NW10      29.78R
RICE LAKE      MOSUNNY   69  56  62 W10       29.78S
LADYSMITH      MOSUNNY   71  57  62 W12G17    29.77R
EAU CLAIRE     PTSUNNY   70  58  65 W15       29.76F
MENOMONIE      MOSUNNY   71  57  62 NW15      29.78F
NEW RICHMOND   MOSUNNY   71  56  59 W10       29.79S
OSCEOLA        MOSUNNY   70  56  61 W12G17    29.81S
$$

WIZ003>005-009-010-017-018-201800-
NORTH CENTRAL WISCONSIN

CITY           SKY/WX    TMP DP  RH WIND       PRES   REMARKS
WOODRUFF       PTSUNNY   69  58  67 NW17G25   29.71R
RHINELANDER    MOSUNNY   71  57  61 W20G29    29.72R
EAGLE RIVER    PTSUNNY   69  55  60 NW14G21   29.69R
LAND O LAKES   CLOUDY    66  56  71 W10G18    29.70R
PHILLIPS       PTSUNNY   68  58  70 W5        29.72S
TOMAHAWK       PTSUNNY   69  56  65 W14G21    29.74R
MEDFORD        MOSUNNY   67  59  74 W12       29.75S
MERRILL        MOSUNNY   71  61  69 W15       29.72R
$$

WIZ029-030-035-036-043>047-201800-
CENTRAL WISCONSIN

CITY           SKY/WX    TMP DP  RH WIND       PRES   REMARKS
WAUSAU         PTSUNNY   72  61  68 W17G23    29.71R
MOSINEE        PTSUNNY   70  63  78 W15G21    29.74S
MARSHFIELD     PTSUNNY   71  63  75 W10G20    29.74F
STEVENS POINT  PTSUNNY   67  61  80 W9G17     29.73F
WAUPACA        PTSUNNY   72  64  75 W10       29.73R
WAUTOMA        PTSUNNY   71  64  78 W10       29.75R
WISC RAPIDS    PTSUNNY   70  63  78 W10       29.75S
CAMP DOUGLAS   CLOUDY    68  68 100 W13G18    29.78R
$$

WIZ011>013-019>022-031-037>040-048>050-201800-
NORTHEAST WISCONSIN

CITY           SKY/WX    TMP DP  RH WIND       PRES   REMARKS
ANTIGO         MOSUNNY   71  61  70 W18G24    29.72R
STURGEON BAY   CLOUDY    68  63  83 SW14      29.69R
GREEN BAY      CLOUDY    71  64  78 W9        29.71R
MANITOWOC      PTSUNNY   73  63  70 W13       29.72S
APPLETON       CLOUDY    72  63  73 W15       29.74R
CLINTONVILLE   CLOUDY    72  61  68 W14       29.71R
OSHKOSH        CLOUDY    73  64  73 W8G18     29.72S
$$

WIZ032>034-041-042-053>061-201800-
SOUTHWEST WISCONSIN

CITY           SKY/WX    TMP DP  RH WIND       PRES   REMARKS
LA CROSSE      CLOUDY    71  63  75 W9        29.78F
SPARTA         CLOUDY    69  62  78 W8        29.78S
VIROQUA        PTSUNNY   66  66  97 W8G16     29.80F
BOSCOBEL       CLOUDY    72  64  76 SW8       29.82R
PRAIRIE DU CHI RAIN      69  61  76 NW6       29.80S
PLATTEVILLE    CLOUDY    73  64  74 SW14G20   29.86R
$$

WIZ056-057-062-063-064-067-068-201800-
SOUTH CENTRAL WISCONSIN

CITY           SKY/WX    TMP DP  RH WIND       PRES   REMARKS
BARABOO/DELLS  LGT RAIN  70  62  76 W12G17    29.77S
LONE ROCK      CLOUDY    76  63  64 W12G23    29.79R
WATERTOWN      PTSUNNY   74  65  73 SW17      29.78S
MADISON        PTSUNNY   76  63  64 SW9G17    29.79R
MIDDLETON      FAIR      76  63  64 SW16      29.79S
MONROE         PTSUNNY   73  64  73 SW23G30   29.83F
JANESVILLE     PTSUNNY   77  63  61 SW18G25   29.83S
$$

WIZ051-052-058>065-066-070>072-201800-
SOUTHEAST WISCONSIN

CITY           SKY/WX    TMP DP  RH WIND       PRES   REMARKS
MILWAUKEE      PTSUNNY   77  61  57 SW17G23   29.79F
WAUKESHA       MOSUNNY   73  61  64 SW16      29.80F
MILWAUKEE/TIMM SUNNY     73  59  60 SW17G24   29.78F
RACINE         MOSUNNY   76  62  62 SW14G23   29.81F
BURLINGTON     MOSUNNY   74  61  62 SW18G24   29.81F
KENOSHA        MOSUNNY   75  63  66 SW17G23   29.82S
FOND DU LAC    CLOUDY    71  63  75 SW8       29.75R
SHEBOYGAN      PTSUNNY   74  62  66 SW16      29.74R
WEST BEND      PTSUNNY   73  59  60 SW14G24   29.76S
JUNEAU         CLOUDY    72  63  73 SW16G22   29.79R
$$

LSZ147-162-201800-
LAKE SUPERIOR

STATION/POSITION TIME  TEMP    WIND        PRES    WAVE
                       AIR SEA DIR/SP/G            HT/PER
                 (UTC) (F)     (DEG/KT/KT) (MB)    (FT/S)
W MID LAKE BUOY  1650   54 47  260/ 12/ 14 1003.8R   2/ 4
DEVILS ISLAND    1700   58     270/ 13/ 15 1005.7R
PORT WING        1600   59     270/ 16/ 20 1006.8R
SAXON HARBOR     1600   68     280/  7/ 12 1005.8R
$$

LMZ867-665-643>646-201800-
LAKE MICHIGAN

STATION/POSITION TIME  TEMP    WIND        PRES    WAVE
                       AIR SEA DIR/SP/G            HT/PER
                 (UTC) (F)     (DEG/KT/KT) (MB)    (FT/S)
N MID LAKE BUOY  1650   60 58  210/ 21/ 23 1003.8F   6/ 7
NORTHPORT PIER   1600   67     220/  6/ 17 1004.1S
SISTER BAY       1627          260/ 14/ 16   N/A
KEWAUNEE LAKESHO 1600   72     230/ 10/ 18 1004.7F
SHEBOYGAN LAKESH 1700   72 54  250/ 19/ 23 1006.9S
PORT WASHINGTON  1600   74     230/  8/ 15 1008.8S
ATWATER BUOY     1700   70     220/ 17/ 21 1009.4F
MILWAUKEE LAKESH 1600   71     230/ 14/ 17   N/A
S MID LAKE BUOY  1650   64 63  200/ 16/ 17 1009.5F   4/ 6
KENOSHA   LAKESH 1700   74     220/ 12/ 17 1009.5S
$$

TC  - TEMPERATURE IN CELSIUS
VSB - VISIBILITY IN STATUTE MILES
WCI - WIND CHILL INDEX
HX  - HEAT INDEX



USA.gov is the U.S. government's official web portal to all federal, state and local government web resources and services.